Location: Boston
(42.3580°N, 71.0600°W)
Time: 02:29:42
(UTC-04:00)

Tiangong 1 - Pass Details

Date: 16 October 2017
Orbit: 292 x 320 km, 42.8° (Epoch: 21 October)

Event Time Altitude Azimuth Distance (km) Brightness Sun altitude
Rises 18:52:01 0° 278° (W) 2,047 6.7 -10.3°
Reaches altitude 10° 18:54:13 10° 263° (W) 1,210 5.2 -10.7°
Maximum altitude 18:56:28 23° 207° (SSW) 720 2.8 -11.1°
Drops below altitude 10° 18:58:41 10° 151° (SSE) 1,192 3.3 -11.5°
Enters shadow 18:59:04 - 146° (SSE) 1,332 3.5 -11.6°
